User: anonymous   Login
Location: Unspecified
(0.0000°N, 0.0000°E)
Time: 16:15:12
(UTC+02:00)
Language:

DFH-1 - Orbit

View from above orbital plane
View from above orbital plane
View from above satellite
View from above satellite

Ground track
Ground track

The orbit data is extracted from the following two-line orbital elements,

1  4382U 70034A   19200.90426636 +.00000342 +00000-0 +65154-4 0  9993
2  4382 068.4248 135.4429 1045766 079.0208 292.6517 13.07803666315072
Epoch (UTC): 19 July 2019 21:42:08
Eccentricity: 0.1045766
inclination: 68.4248°
perigee height: 436 km
apogee height: 2027 km
right ascension of ascending node: 135.4429°
argument of perigee: 79.0208°
revolutions per day: 13.07803666
mean anomaly at epoch: 292.6517°
orbit number at epoch: 31507

The dashed part of the orbit path shows where the satellite is in the earth's shadow,  

DLR